Regional Weather Roundup
Issued by NWS Jackson, KY

Home | Current Version | Previous Version | Graphics & Text | Print | Product List | Glossary On
Versions: 1 2 3 4 5 6 7 8 9 10 11 12 13 14 15 16 17 18 19 20 21 22 23 24 25 26 27 28 29 30 31 32 33 34 35 36 37 38 39 40 41 42 43 44 45 46 47 48 49 50
000
ASUS43 KJKL 220211
RWRJKL

EAST KENTUCKY HOURLY WEATHER ROUNDUP
NATIONAL WEATHER SERVICE JACKSON KY
1000 PM EDT THU AUG 21 2014

NOTE: "FAIR" INDICATES FEW OR NO CLOUDS BELOW 12,000 FEET WITH
NO SIGNIFICANT WEATHER AND/OR OBSTRUCTIONS TO VISIBILITY.

* THESE REPORTS ARE NOT UNDER NWS QUALITY CONTROL AND MAY NOT
  REPORT WEATHER SUCH AS PRECIPITATION AND FOG.

KYZ079-080-083-085-087-088-110-112-115-119-120-220300
...EASTERN KENTUCKY...

CITY           SKY/WX    TMP DP  RH WIND       PRES   REMARKS
JACKSON        MOCLDY    71  68  90 CALM      30.09R
LONDON         PTCLDY    79  71  76 CALM      30.10R
SOMERSET*      MOCLDY    77  73  88 CALM      30.09R
MONTICELLO*    CLEAR     76  74  93 CALM      30.10R
WILLIAMSBURG*  CLEAR     75  75 100 CALM      30.10R
MIDDLESBORO*   PTCLDY    75  71  87 CALM      30.11R
HARLAN APT*    PTCLDY    70  70 100 MISG      30.13R
HAZARD APT*    CLEAR     72  72 100 CALM      30.10
BLACK MTN*       N/A     66  66 100 SW8         N/A
PIKEVILLE APT* MOCLDY    70  68  94 S3        30.11R
BIG SANDY*     PTCLDY    71  69  95 S6        30.09R
MOREHEAD APT*  MOCLDY    73  72  94 SE3       30.08R
$$

KYZ035-036-041-042-044-050-067-078-099-220300
...CENTRAL KENTUCKY...

CITY           SKY/WX    TMP DP  RH WIND       PRES   REMARKS
MT STERLING*   MOCLDY    73  72  94 SW5       30.08R
FLEMING/MASON* PTCLDY    73  72  94 S5        30.06R
DANVILLE*      PTCLDY    77  72  83 S3        30.08R
RICHMOND*      PTCLDY    79  72  78 S5        30.07R
LEXINGTON      MOCLDY    80  71  74 S6        30.05R
FRANKFORT      PTCLDY    77  72  84 CALM      30.02R
$$

KYZ091>093-OHZ055-061-077-WVZ005-015-034-035-042-220300
...SOUTHERN OHIO/WEST VIRGINIA...

CITY           SKY/WX    TMP DP  RH WIND       PRES   REMARKS
COVINGTON      MOCLDY    76  72  87 S5        30.01S
COLUMBUS       CLOUDY    74  69  85 SE6       30.02S
DAYTON         CLOUDY    75  72  90 S5        30.03R FOG
WILMINGTON     CLEAR     71  69  93 S5        30.03S FOG
HUNTINGTON     MOCLDY    71  70  96 CALM      30.06R
CHARLESTON     MOCLDY    72  71  97 CALM      30.07R
PINEVILLE*     CLOUDY    69  69 100 MISG      30.19R FOG
BECKLEY        CLOUDY    67  65  93 SW6       30.16S
BLUEFIELD      PTCLDY    67  63  87 W8        30.19R
$$

VAZ002-007-008-TNZ017-027-036-066-071-220300
...SOUTHWEST VIRGINIA/EAST TENNESSEE...

CITY           SKY/WX    TMP DP  RH WIND       PRES   REMARKS
WISE*          MOCLDY    66  66 100 SW3       30.20R
JONESVILLE*      N/A     72  70  94 CALM      30.14S
ABINGDON*      MOCLDY    70  69  98 CALM      30.17R
BRISTOL        CLOUDY    76  71  85 CALM      30.13R
KNOXVILLE      PTCLDY    80  71  74 S6        30.09R
OAK RIDGE      CLEAR     78  74  87 CALM      30.11R
CROSSVILLE     CLEAR     75  70  84 CALM      30.16R
NASHVILLE      PTCLDY    85  72  65 SW5       30.06R HX  91
$$

...KEY TO REMARKS...
VSB - VISIBILITY IN MILES
WCI - WIND CHILL INDEX
HX  - HEAT INDEX

$$


USA.gov is the U.S. government's official web portal to all federal, state and local government web resources and services.